Weather History for Cedar City, UT

Change the Weather History Date:

Monday, May 7, 2012

  Actual Average Record
Temperature  
Mean Temperature 43 °F 53 °F  
Max Temperature 62 °F 69 °F 85 °F (1989)
Min Temperature 23 °F 37 °F 23 °F (1968)
Degree Days  
Heating Degree Days 22 12  
Month to date heating degree days 66 90  
Since 1 July heating degree days 5759 5976  
Cooling Degree Days 0 0  
Month to date cooling degree days 0 0  
Year to date cooling degree days 0 0  
Moisture  
Dew Point 18 °F    
Average Humidity 37    
Maximum Humidity 54    
Minimum Humidity 19    
Precipitation  
Precipitation T in 0.02 in 1.17 in (1979)
Month to date precipitation T 0.18  
Year to date precipitation 3.60 4.45  
Sea Level Pressure  
Sea Level Pressure 30.02 in    
Wind  
Wind Speed 8 mph (NNE)    
Max Wind Speed 30 mph    
Max Gust Speed 39 mph    
Visibility 10 miles    
Events Rain    
T = Trace of Precipitation, MM = Missing Value Source: NWS Daily Summary

Daily Weather History Graph

Daily Weather History Graph

Search for Another Location

Airport:

Trip Planner

Search our weather history database for the weather conditions in past years. The results will help you decide how hot, cold, wet, or windy it might be!

Date:

Astronomy

May. 07, 2012 Rise Set
Actual Time 6:29 AM MDT 8:28 PM MDT
Civil Twilight 6:00 AM MDT 8:57 PM MDT
Nautical Twilight 5:25 AM MDT 9:32 PM MDT
Astronomical Twilight 4:48 AM MDT 10:10 PM MDT
Moon 10:43 PM MDT (5/7) 7:40 AM MDT (5/7)
Length of Visible Light 14h 56m
Length of Day
13h 59m
Waning Gibbous, 96% of the Moon is Illuminated
May 7
Waning Gibbous
May 12
Last Quarter
May 20
New
May 28
First Quarter
Jun 4
Full

Hourly Weather History & Observations

Time (MDT) Temp. Windchill Dew Point Humidity Pressure Visibility Wind Dir Wind Speed Gust Speed Precip Events Conditions
12:53 AM 37.0 °F 31.6 °F 10.0 °F 33% 30.08 in 10.0 mi North 6.9 mph - N/A   Clear
1:53 AM 30.9 °F 24.3 °F 9.0 °F 40% 30.09 in 10.0 mi North 6.9 mph - N/A   Clear
2:53 AM 33.1 °F - 7.0 °F 34% 30.07 in 10.0 mi Calm Calm - N/A   Clear
3:53 AM 32.0 °F 24.8 °F 7.0 °F 35% 30.06 in 10.0 mi ENE 8.1 mph - N/A   Clear
4:53 AM 26.1 °F 21.9 °F 6.1 °F 43% 30.07 in 10.0 mi NE 3.5 mph - N/A   Clear
5:53 AM 23.0 °F 18.4 °F 6.1 °F 48% 30.08 in 10.0 mi NNE 3.5 mph - N/A   Clear
6:53 AM 23.0 °F 18.4 °F 8.1 °F 53% 30.08 in 10.0 mi North 3.5 mph - N/A   Clear
7:53 AM 35.1 °F - 9.0 °F 34% 30.06 in 10.0 mi Calm Calm - N/A   Clear
8:53 AM 46.0 °F 41.9 °F 10.9 °F 24% 30.02 in 10.0 mi North 8.1 mph 17.3 mph N/A   Clear
9:53 AM 51.1 °F - 15.1 °F 24% 30.02 in 10.0 mi North 13.8 mph - N/A   Clear
10:53 AM 55.0 °F - 18.0 °F 23% 30.00 in 10.0 mi North 15.0 mph 23.0 mph N/A   Clear
11:53 AM 55.0 °F - 18.0 °F 23% 30.01 in 10.0 mi North 15.0 mph 24.2 mph N/A   Partly Cloudy
12:53 PM 59.0 °F - 18.0 °F 20% 29.97 in 10.0 mi North 16.1 mph 21.9 mph N/A   Partly Cloudy
1:53 PM 60.1 °F - 18.0 °F 20% 29.97 in 10.0 mi North 16.1 mph 23.0 mph N/A   Partly Cloudy
2:53 PM 57.9 °F - 19.9 °F 23% 29.96 in 10.0 mi North 15.0 mph - N/A   Overcast
3:41 PM 51.8 °F - 28.4 °F 41% 30.05 in 10.0 mi ENE 26.5 mph 36.8 mph 0.00 in Rain Light Rain
3:53 PM 48.9 °F - 32.0 °F 52% 30.03 in 10.0 mi NE 21.9 mph 35.7 mph 0.00 in Rain Light Rain
4:53 PM 60.1 °F - 30.0 °F 32% 29.98 in 10.0 mi Variable 5.8 mph - 0.00 in   Clear
5:53 PM 62.1 °F - 25.0 °F 24% 29.96 in 10.0 mi NE 16.1 mph 26.5 mph N/A   Partly Cloudy
6:53 PM 63.0 °F - 24.1 °F 23% 29.96 in 10.0 mi North 9.2 mph 18.4 mph N/A   Clear
7:53 PM 57.9 °F - 23.0 °F 26% 29.95 in 10.0 mi North 11.5 mph - N/A   Scattered Clouds
8:53 PM 52.0 °F - 25.0 °F 35% 29.96 in 10.0 mi North 3.5 mph - N/A   Mostly Cloudy
9:53 PM 50.0 °F - 25.0 °F 38% 29.97 in 10.0 mi North 5.8 mph - N/A   Mostly Cloudy
10:53 PM 46.9 °F - 25.0 °F 42% 29.99 in 10.0 mi Calm Calm - N/A   Clear
11:53 PM 44.1 °F 40.8 °F 23.0 °F 43% 30.00 in 10.0 mi NNW 5.8 mph - N/A   Clear